Regional Weather Roundup
Issued by NWS Kansas City/Pleasant Hill, MO

Home | Current Version | Previous Version | Text Only | Print | Product List | Glossary On
Versions: 1 2 3 4 5 6 7 8 9 10 11 12 13 14 15 16 17 18 19 20 21 22 23 24 25 26 27 28 29 30 31 32 33 34 35 36 37 38 39 40 41 42 43 44 45 46 47 48 49 50
000
ASUS43 KEAX 310311
RWREAX

WEATHER ROUNDUP FOR EASTERN KANSAS AND NORTHWEST MISSOURI
NATIONAL WEATHER SERVICE KANSAS CITY/PLEASANT HILL MO
900 PM CST FRI JAN 30 2015

KSZ040-057-103>105-MOZ028-029-037-043-310400-
...KANSAS CITY METROPOLITAN AREA...

CITY           SKY/WX    TMP DP  RH WIND       PRES   REMARKS
K.C. INTL      CLOUDY    32  22  66 S6        30.36S WCI  26
K.C. DOWNTOWN  CLOUDY    37  21  52 S3        30.37S
LEES SUMMIT    CLOUDY    35  19  52 S5        30.37F WCI  31
OLATHE - IXD   CLOUDY    33  23  66 S6        30.37F WCI  28
OLATHE - OJC   CLOUDY    33  22  63 S6        30.36S WCI  28
LAWRENCE       CLOUDY    34  23  64 S5        30.37F WCI  30

$$

MOZ001>008-011>017-020>025-030>033-038>040-044>046-053-054-310400-
...NORTHERN AND CENTRAL MISSOURI...

CITY           SKY/WX    TMP DP  RH WIND       PRES   REMARKS
ST. JOSEPH     CLOUDY    27  21  78 S5        30.37F WCI  22
MOSBY          CLOUDY    32  21  64 CALM      30.38F
WARRENSBURG    CLOUDY    32  19  59 CALM      30.40R
WHITEMAN AFB   CLOUDY    31  19  59 CALM      30.38S
CLINTON        CLOUDY    32  27  80 MISG      30.39S
SEDALIA        CLOUDY    32  21  64 SE5       30.39F WCI  27
WARSAW         NOT AVBL
MARSHALL       CLOUDY    32  23  69 E5        30.41F WCI  27
CHILLICOTHE      N/A     29  21  72 CALM      30.39F
MOBERLY        MOCLDY    28  19  69 S5        30.40F WCI  23
KIRKSVILLE     PTCLDY    27  18  69 S3        30.38S

$$

MOZ041-047>049-056>058-063>065-088>090-097-310400-
...EASTERN AND SOUTHERN MISSOURI...

CITY           SKY/WX    TMP DP  RH WIND       PRES   REMARKS
ST. LOUIS INTL MOCLDY    31  19  61 SE5       30.44F WCI  26
SPIRIT OF STL  FAIR      25  19  78 CALM      30.43F
COLUMBIA       CLOUDY    32  18  56 E5        30.39F WCI  27
JEFFERSON CITY CLOUDY    28  19  69 CALM      30.41F
MEXICO         MOCLDY    28  27  93 SE5       30.40F WCI  23
HANNIBAL       CLEAR     28  16  59 S3        30.40S
ROLLA          CLOUDY    30  20  66 E3        30.38S
LEBANON        CLOUDY    36  18  48 CALM      30.38S
OSAGE BEACH    CLOUDY    32  18  55 E3        30.39S
SPRINGFIELD    CLOUDY    35  24  64 SE3       30.36F
BRANSON        MOCLDY    39  19  45 SE6       30.39F WCI  35
NEVADA         CLOUDY    36  25  64 CALM      30.39S
JOPLIN         CLOUDY    37  26  64 CALM      30.37F
WEST PLAINS    MOCLDY    32  16  51 CALM      30.40F

$$

IAZ060-094-KSZ022-034>040-054-083-096-NEZ052-066-093-310400-
...KANSAS...SOUTHEAST NEBRASKA AND IOWA...

CITY           SKY/WX    TMP DP  RH WIND       PRES   REMARKS
TOPEKA         CLOUDY    37  23  56 S5        30.37F WCI  33
MANHATTAN      CLOUDY    40  26  57 S6        30.35F
EMPORIA        CLOUDY    37  23  56 S7        30.35F WCI  32
CHANUTE        CLOUDY    38  26  62 S5        30.38S WCI  34
WICHITA        CLOUDY    40  25  55 S3        30.33F
OMAHA          CLOUDY    33  25  72 SE9       30.29S WCI  25
LINCOLN        CLOUDY    36  25  64 S8        30.29S WCI  30
FALLS CITY     CLOUDY    31  21  66 S5        30.33F WCI  26
LAMONI         CLOUDY    28  16  60 S8        30.33F WCI  20
DES MOINES     PTCLDY    29  15  56 S9        30.31F WCI  20

$$




USA.gov is the U.S. government's official web portal to all federal, state and local government web resources and services.